ICEYE-X53

导读

ICEYE-X53是芬兰商业合成孔径雷达卫星运营商Iceye公司的卫星,计划于2025年6月23日发射,具体发射国家暂未公布。该卫星隶属于Iceye的合成孔径雷达卫星星座,依托Iceye先进的卫星技术,它将提供高分辨率的全天候地球观测数据,可服务于灾害监测、资源勘探、国家安全等多个领域,助力拓展全球商业遥感服务能力。

Basic Information
目录编号:
64584
目录名称:
ICEYE-X53
国际标识:
2025-135BJ
轨道中心:
EARTH
卫星名称:
ICEYE-X53
卫星全名:
ICEYE-X53
卫星状态:
在轨 (已飞行355 天)
发射日期:
2025-06-23 UTC
国别 :
(FI)
星等 :
--
Orbit Information
数据来源 国际轨道数据 AOE轨道数据
星历时间 2026-06-13T05:23:02+0800
5小时前
查看轨道信息
2026-06-11T04:00:00+0800
2天前
查看轨道信息
半长轴 6942.35km 6942.336km
偏心率 0.0001131 0.0001278
轨道倾角 97.739° 97.740°
近地点辐角 140.417° 146.256°
升交点赤经 280.693° 278.644°
平近点角 219.714° 263.067°
近地点 563.427km 563.311km
远地点 564.999km 565.087km
周期 95.944分钟 95.944分钟
每日圈数 15.0087 15.008743
Detailed Information
使用方式:
暂无
2D Orbit Map
3D Orbit Map
Orbit Altitude Analysis Chart
Orbit Inclination Analysis Chart
Orbit Comprehensive Analysis Chart
View Comprehensive Chart